Location: Unspecified
(36.9193°S, 174.7252°E)
Time: 02:08:14
(UTC+13:00)

Envisat - Pass Details

Date: 27 September 2021
Orbit: 764 x 766 km, 98.2° (Epoch: 18 October)

Event Time Altitude Azimuth Distance (km) Brightness Sun altitude
Rises 04:26:00 0° 57° (ENE) 3,230 6.6 -31.0°
Reaches altitude 10° 04:29:03 10° 77° (ENE) 2,314 6.0 -30.4°
Maximum altitude 04:32:14 17° 115° (ESE) 1,885 5.8 -29.9°
Drops below altitude 10° 04:35:26 10° 154° (SSE) 2,332 6.1 -29.3°
Sets 04:38:31 0° 173° (S) 3,268 6.7 -28.8°
